Find Kosmos-2493

NORAD ID: 39490 Int'l Des: 2013-078 Owner: PVO Country: RU operational
LEOCIRCULARPOLAR

現在のビュー

3D地球を読み込み中...

Kosmos-2493について

説明を読み込み中...

次回通過

Passes for default location (London). Set your location on the main map for personalized predictions.

高度履歴

Loading altitude history...

軌道要素

1 39490U 13078A 26149.96597478 .00004723 00000-0 35762-3 0 9993
2 39490 82.4122 279.0107 0011843 309.6525 50.3654 15.02049524675226
Epoch: May 29, 2026 • Age: 17 hours

現在のステータス

高度 574.1 km
速度 7.57 km/s
衛星直下点 -34.79°S, 26.48°W
打ち上げ日 Dec 28, 2013
運用期間 12.4 years
タイプ other

技術仕様

分類 Payload
質量 50.00 kg
乾燥質量 50.00 kg
総質量 50.00 kg
長さ 0.80 m
直径 0.80 m
スパン 0.80 m
形状 Sphere
製造者 ALMAN
バスタイプ SKRL
フェーズステータス In Orbit
所有者/国 PVO/RU

Most Searched